• In Uzbekistan
  • List of Countries
  • For 7 days
  • Water Temperature
  • Satellite Maps
  • Weather Map
  • Weather Widgets
  • user-avatar
    Login

    Hourly Weather Belkino

    Today, 23 October, Tuesday

    Time Temperature Precipitation Wind Pressure Humidity
    00:00 +2°C° 0 mm 3 mps 742 mmHg 82%
    01:00 +1°C° 0 mm 3 mps 741 mmHg 83%
    02:00 +1°C° 0 mm 3 mps 740 mmHg 83%
    03:00 +1°C° 0 mm 3 mps 740 mmHg 84%
    04:00 +1°C° 0 mm 3 mps 739 mmHg 85%
    05:00 +1°C° 0 mm 3 mps 738 mmHg 86%
    06:00 0°C° 0 mm 4 mps 737 mmHg 87%
    07:00 0°C° 0 mm 4 mps 737 mmHg 86%
    08:00 0°C° 0 mm 4 mps 737 mmHg 84%
    09:00 +1°C° 0 mm 4 mps 737 mmHg 83%
    10:00 +3°C° 0 mm 4 mps 736 mmHg 81%
    11:00 +4°C° 0 mm 4 mps 736 mmHg 79%
    12:00 +4°C° 0 mm 4 mps 735 mmHg 77%
    13:00 +4°C° 0.1 mm 4 mps 735 mmHg 78%
    14:00 +4°C° 0.1 mm 4 mps 734 mmHg 79%
    15:00 +4°C° 0.1 mm 3 mps 733 mmHg 80%
    16:00 +4°C° 0.1 mm 3 mps 733 mmHg 83%
    17:00 +4°C° 0.1 mm 3 mps 732 mmHg 85%
    18:00 +4°C° 0.1 mm 3 mps 732 mmHg 87%
    19:00 +3°C° 0 mm 3 mps 731 mmHg 88%
    20:00 +3°C° 0 mm 3 mps 731 mmHg 88%
    21:00 +3°C° 0 mm 3 mps 730 mmHg 88%
    22:00 +3°C° 0 mm 3 mps 730 mmHg 89%
    23:00 +3°C° 0 mm 3 mps 729 mmHg 89%

    Tomorrow, 24 October, Wednesday

    Time Temperature Precipitation Wind Pressure Humidity
    00:00 +3°C° 0 mm 3 mps 728 mmHg 90%
    01:00 +3°C° 0.1 mm 4 mps 727 mmHg 89%
    02:00 +3°C° 0.1 mm 4 mps 727 mmHg 87%
    03:00 +3°C° 0.1 mm 4 mps 726 mmHg 86%
    04:00 +3°C° 0.1 mm 4 mps 725 mmHg 85%
    05:00 +3°C° 0.1 mm 4 mps 724 mmHg 83%
    06:00 +3°C° 0.1 mm 4 mps 723 mmHg 82%
    07:00 +3°C° 0.1 mm 4 mps 723 mmHg 81%
    08:00 +2°C° 0.1 mm 5 mps 722 mmHg 80%
    09:00 +3°C° 0.1 mm 5 mps 722 mmHg 78%
    10:00 +3°C° 0.4 mm 5 mps 721 mmHg 78%
    11:00 +5°C° 0.4 mm 5 mps 721 mmHg 78%
    12:00 +5°C° 0.4 mm 5 mps 720 mmHg 78%
    13:00 +5°C° 0.9 mm 5 mps 720 mmHg 81%
    14:00 +5°C° 0.9 mm 5 mps 720 mmHg 84%
    15:00 +5°C° 0.9 mm 5 mps 720 mmHg 86%
    16:00 +5°C° 0.2 mm 4 mps 720 mmHg 87%
    17:00 +5°C° 0.2 mm 4 mps 719 mmHg 88%
    18:00 +4°C° 0.2 mm 3 mps 719 mmHg 89%
    19:00 +4°C° 0.2 mm 3 mps 719 mmHg 91%
    20:00 +5°C° 0.2 mm 2 mps 720 mmHg 92%
    21:00 +5°C° 0.2 mm 2 mps 720 mmHg 94%
    22:00 +5°C° 0.4 mm 2 mps 719 mmHg 95%
    23:00 +6°C° 0.4 mm 1 mps 719 mmHg 96%

    Day after tomorrow, 25 October, Thursday

    Time Temperature Precipitation Wind Pressure Humidity
    00:00 +6°C° 0.4 mm 1 mps 719 mmHg 97%
    01:00 +5°C° 0.5 mm 2 mps 719 mmHg 97%
    02:00 +5°C° 0.5 mm 2 mps 719 mmHg 97%
    03:00 +5°C° 0.5 mm 2 mps 718 mmHg 97%
    04:00 +4°C° 2.2 mm 3 mps 717 mmHg 97%
    05:00 +4°C° 2.2 mm 4 mps 717 mmHg 96%
    06:00 +3°C° 2.2 mm 5 mps 716 mmHg 95%
    07:00 +3°C° 3 mm 5 mps 715 mmHg 94%
    08:00 +3°C° 3 mm 5 mps 715 mmHg 92%
    09:00 +3°C° 3 mm 5 mps 714 mmHg 91%
    10:00 +3°C° 1.1 mm 5 mps 714 mmHg 89%
    11:00 +3°C° 1.1 mm 5 mps 713 mmHg 87%
    12:00 +3°C° 1.1 mm 5 mps 713 mmHg 85%
    13:00 +3°C° 1.3 mm 7 mps 713 mmHg 84%
    14:00 +1°C° 1.3 mm 8 mps 713 mmHg 83%
    15:00 +1°C° 1.3 mm 9 mps 714 mmHg 82%
    16:00 0°C° 0.9 mm 9 mps 714 mmHg 82%
    17:00 0°C° 0.9 mm 9 mps 715 mmHg 81%
    18:00 -2°C° 0.9 mm 10 mps 716 mmHg 81%
    19:00 -1°C° 0.2 mm 9 mps 717 mmHg 80%
    20:00 -1°C° 0.2 mm 8 mps 718 mmHg 80%
    21:00 -1°C° 0.2 mm 8 mps 720 mmHg 79%
    22:00 -1°C° 0 mm 7 mps 720 mmHg 79%
    23:00 -1°C° 0 mm 7 mps 721 mmHg 80%

    26 October, Friday

    Time Temperature Precipitation Wind Pressure Humidity
    00:00 -1°C° 0 mm 7 mps 722 mmHg 80%
    01:00 -1°C° 0 mm 6 mps 723 mmHg 81%
    02:00 -1°C° 0 mm 6 mps 723 mmHg 81%
    03:00 -1°C° 0 mm 6 mps 724 mmHg 81%
    04:00 -1°C° 0 mm 6 mps 724 mmHg 81%
    05:00 -1°C° 0 mm 6 mps 725 mmHg 81%
    06:00 -1°C° 0 mm 6 mps 726 mmHg 81%
    07:00 -1°C° 0 mm 6 mps 726 mmHg 81%
    08:00 -1°C° 0 mm 6 mps 727 mmHg 80%
    09:00 -1°C° 0 mm 6 mps 728 mmHg 80%
    10:00 -1°C° 0 mm 6 mps 728 mmHg 78%
    11:00 +1°C° 0 mm 5 mps 729 mmHg 77%
    12:00 +1°C° 0 mm 5 mps 730 mmHg 76%
    13:00 +1°C° 0 mm 5 mps 730 mmHg 76%
    14:00 +1°C° 0 mm 5 mps 730 mmHg 75%
    15:00 +2°C° 0 mm 5 mps 731 mmHg 75%
    16:00 +1°C° 0.1 mm 4 mps 731 mmHg 78%
    17:00 +1°C° 0.1 mm 4 mps 732 mmHg 81%
    18:00 +2°C° 0.1 mm 3 mps 732 mmHg 84%
    19:00 +2°C° 0.1 mm 3 mps 733 mmHg 85%
    20:00 +1°C° 0.1 mm 3 mps 733 mmHg 86%
    21:00 0°C° 0.1 mm 4 mps 733 mmHg 87%
    22:00 0°C° 0 mm 4 mps 734 mmHg 86%
    23:00 0°C° 0 mm 4 mps 734 mmHg 86%

    27 October, Saturday

    Time Temperature Precipitation Wind Pressure Humidity
    00:00 0°C° 0 mm 4 mps 735 mmHg 85%
    01:00 -1°C° 0 mm 4 mps 735 mmHg 86%
    02:00 -1°C° 0 mm 4 mps 736 mmHg 87%
    03:00 -1°C° 0 mm 4 mps 736 mmHg 87%
    04:00 -1°C° 0 mm 4 mps 737 mmHg 89%
    05:00 -2°C° 0 mm 4 mps 737 mmHg 91%
    06:00 -2°C° 0 mm 4 mps 738 mmHg 93%
    07:00 -1°C° 0 mm 4 mps 738 mmHg 92%
    08:00 -1°C° 0 mm 4 mps 739 mmHg 91%
    09:00 -1°C° 0 mm 4 mps 739 mmHg 90%
    10:00 0°C° 0 mm 4 mps 739 mmHg 86%
    11:00 +1°C° 0 mm 4 mps 739 mmHg 82%
    12:00 +4°C° 0 mm 4 mps 739 mmHg 78%
    13:00 +4°C° 0 mm 4 mps 739 mmHg 77%
    14:00 +5°C° 0 mm 4 mps 739 mmHg 76%
    15:00 +5°C° 0 mm 5 mps 739 mmHg 75%
    16:00 +5°C° 0 mm 5 mps 739 mmHg 78%
    17:00 +3°C° 0 mm 5 mps 739 mmHg 81%
    18:00 +3°C° 0 mm 5 mps 739 mmHg 84%
    19:00 +3°C° 0.1 mm 5 mps 738 mmHg 84%
    20:00 +3°C° 0.1 mm 5 mps 738 mmHg 83%
    21:00 +4°C° 0.1 mm 6 mps 738 mmHg 83%
    22:00 +4°C° 0 mm 6 mps 738 mmHg 84%
    23:00 +3°C° 0 mm 5 mps 737 mmHg 85%

    28 October, Sunday

    Time Temperature Precipitation Wind Pressure Humidity
    00:00 +3°C° 0 mm 5 mps 737 mmHg 86%
    01:00 +5°C° 0.1 mm 5 mps 737 mmHg 88%
    02:00 +5°C° 0.1 mm 5 mps 737 mmHg 90%
    03:00 +5°C° 0.1 mm 5 mps 737 mmHg 92%
    04:00 +6°C° 0.3 mm 5 mps 736 mmHg 92%
    05:00 +6°C° 0.3 mm 5 mps 736 mmHg 93%
    06:00 +7°C° 0.3 mm 5 mps 736 mmHg 94%
    07:00 +7°C° 0.5 mm 5 mps 736 mmHg 94%
    08:00 +8°C° 0.5 mm 5 mps 736 mmHg 94%
    09:00 +8°C° 0.5 mm 5 mps 736 mmHg 94%
    10:00 +8°C° 0.8 mm 5 mps 736 mmHg 93%
    11:00 +9°C° 0.8 mm 5 mps 736 mmHg 92%
    12:00 +9°C° 0.8 mm 5 mps 736 mmHg 90%
    13:00 +9°C° 0.7 mm 5 mps 736 mmHg 90%
    14:00 +9°C° 0.7 mm 5 mps 735 mmHg 90%
    15:00 +10°C° 0.7 mm 5 mps 735 mmHg 89%
    16:00 +10°C° 0.1 mm 6 mps 735 mmHg 88%
    17:00 +10°C° 0.1 mm 6 mps 735 mmHg 86%
    18:00 +10°C° 0.1 mm 7 mps 734 mmHg 85%
    19:00 +11°C° 0.4 mm 7 mps 734 mmHg 85%
    20:00 +11°C° 0.4 mm 7 mps 734 mmHg 85%
    21:00 +11°C° 0.4 mm 7 mps 734 mmHg 85%
    22:00 +11°C° 0 mm 7 mps 734 mmHg 85%
    23:00 +11°C° 0 mm 7 mps 734 mmHg 86%

    29 October, Monday

    Time Temperature Precipitation Wind Pressure Humidity
    00:00 +11°C° 0 mm 6 mps 734 mmHg 86%
    01:00 +11°C° 0.1 mm 6 mps 735 mmHg 86%
    02:00 +11°C° 0.1 mm 6 mps 735 mmHg 86%
    03:00 +11°C° 0.1 mm 6 mps 735 mmHg 86%
    04:00 +11°C° 0 mm 6 mps 736 mmHg 86%
    05:00 +10°C° 0 mm 6 mps 736 mmHg 85%
    06:00 +9°C° 0 mm 6 mps 737 mmHg 84%
    07:00 +8°C° 0 mm 6 mps 738 mmHg 82%
    08:00 +7°C° 0 mm 6 mps 739 mmHg 79%
    09:00 +5°C° 0 mm 6 mps 740 mmHg 76%
    10:00 +5°C° 0 mm 6 mps 741 mmHg 74%
    11:00 +6°C° 0 mm 5 mps 742 mmHg 71%
    12:00 +6°C° 0 mm 5 mps 743 mmHg 69%
    13:00 +6°C° 0 mm 5 mps 744 mmHg 70%
    14:00 +6°C° 0 mm 4 mps 744 mmHg 70%
    15:00 +6°C° 0 mm 4 mps 745 mmHg 70%
    16:00 +7°C° 0 mm 3 mps 745 mmHg 74%
    17:00 +6°C° 0 mm 2 mps 746 mmHg 77%
    18:00 +6°C° 0 mm 2 mps 746 mmHg 81%
    19:00 +7°C° 0 mm 1 mps 747 mmHg 81%
    20:00 +7°C° 0 mm 1 mps 747 mmHg 82%
    21:00 +7°C° 0 mm 1 mps 748 mmHg 82%
    22:00 +7°C° 0 mm 1 mps 748 mmHg 83%
    23:00 +6°C° 0 mm 1 mps 748 mmHg 83%
    Show more